Lancaster, PA

4:42 AM EDT on August 17, 2017 (GMT -0400)
Lancaster

Weather History for KLNS - September, 2013

Change the Weather History Date:

Friday, September 13, 2013

  Actual Average Record
Temperature  
Mean Temperature 66 °F -  
Max Temperature 75 °F 79 °F 90 °F (2005)
Min Temperature 57 °F 56 °F 43 °F (1985)
Cooling Degree Days 1    
Growing Degree Days 16 (Base 50)    
Moisture  
Dew Point 56 °F    
Average Humidity 71    
Maximum Humidity 96    
Minimum Humidity 46    
Precipitation  
Precipitation 0.01 in - - ()
Sea Level Pressure  
Sea Level Pressure 29.77 in    
Wind  
Wind Speed 7 mph (NW)    
Max Wind Speed 17 mph    
Max Gust Speed 25 mph    
Visibility 8 miles    
Events      
Averages and records for this station are not official NWS values.
T = Trace of Precipitation, MM = Missing Value Source: NWS Daily Summary

Daily Weather History Graph

Daily Weather History Graph

Search for Another Location

Airport or City:

Trip Planner

Search our weather history database for the weather conditions in past years. The results will help you decide how hot, cold, wet, or windy it might be!

Date:

Astronomy

Sep. 13, 2013 Rise Set
Actual Time 6:44 AM EDT 7:16 PM EDT
Civil Twilight 6:17 AM EDT 7:44 PM EDT
Nautical Twilight 5:44 AM EDT 8:16 PM EDT
Astronomical Twilight 5:11 AM EDT 8:49 PM EDT
Moon 3:04 PM EDT (9/13) 12:11 AM EDT (9/13)
Length of Visible Light 13h 27m
Length of Day
12h 32m
First Quarter, 61% of the Moon is Illuminated
Sep 13
First Quarter
Sep 19
Full
Sep 26
Last Quarter
Oct 4
New
Oct 11
First Quarter

Hourly Weather History & Observations

Time (EDT) Temp. Dew Point Humidity Pressure Visibility Wind Dir Wind Speed Gust Speed Precip Events Conditions
12:53 AM 69.1 °F 68.0 °F 96% 29.72 in 3.0 mi Calm Calm - 0.00 in   Overcast
1:24 AM 68.0 °F 66.2 °F 94% 29.72 in 2.5 mi WNW 3.5 mph - N/A   Overcast
1:53 AM 68.0 °F 66.9 °F 96% 29.70 in 2.5 mi West 4.6 mph - N/A   Overcast
2:29 AM 68.0 °F 66.2 °F 94% 29.71 in 3.0 mi West 6.9 mph - N/A   Overcast
2:53 AM 68.0 °F 66.9 °F 96% 29.70 in 4.0 mi West 9.2 mph - N/A   Mostly Cloudy
3:53 AM 66.0 °F 64.0 °F 93% 29.69 in 6.0 mi WNW 6.9 mph - N/A   Partly Cloudy
4:53 AM 64.9 °F 61.0 °F 87% 29.71 in 10.0 mi NW 10.4 mph - N/A   Partly Cloudy
5:53 AM 63.0 °F 59.0 °F 87% 29.72 in 10.0 mi West 3.5 mph - N/A   Mostly Cloudy
6:53 AM 62.1 °F 59.0 °F 90% 29.73 in 10.0 mi West 3.5 mph - N/A   Clear
7:53 AM 64.0 °F 59.0 °F 84% 29.74 in 10.0 mi NW 5.8 mph - N/A   Scattered Clouds
8:53 AM 64.0 °F 59.0 °F 84% 29.76 in 10.0 mi NW 5.8 mph - 0.00 in   Clear
9:53 AM 64.9 °F 57.9 °F 78% 29.77 in 10.0 mi WNW 6.9 mph - N/A   Clear
10:53 AM 69.1 °F 55.9 °F 63% 29.77 in 10.0 mi NNW 13.8 mph - N/A   Scattered Clouds
11:53 AM 70.0 °F 54.0 °F 57% 29.78 in 10.0 mi NW 12.7 mph - N/A   Mostly Cloudy
12:53 PM 71.1 °F 53.1 °F 53% 29.76 in 10.0 mi NW 13.8 mph - N/A   Scattered Clouds
1:53 PM 73.0 °F 53.1 °F 49% 29.75 in 10.0 mi North 17.3 mph 25.3 mph 0.01 in   Partly Cloudy
2:53 PM 73.0 °F 51.1 °F 46% 29.75 in 10.0 mi North 13.8 mph 19.6 mph N/A   Partly Cloudy
3:53 PM 70.0 °F 50.0 °F 49% 29.77 in 10.0 mi North 10.4 mph - N/A   Scattered Clouds
4:53 PM 72.0 °F 50.0 °F 46% 29.77 in 10.0 mi North 15.0 mph 23.0 mph N/A   Clear
5:53 PM 70.0 °F 48.0 °F 46% 29.78 in 10.0 mi NNW 13.8 mph - N/A   Clear
6:53 PM 66.9 °F 46.9 °F 49% 29.81 in 10.0 mi NNW 8.1 mph - N/A   Mostly Cloudy
7:53 PM 66.0 °F 46.9 °F 50% 29.84 in 10.0 mi North 10.4 mph - N/A   Overcast
8:53 PM 64.0 °F 48.0 °F 56% 29.87 in 10.0 mi North 10.4 mph - N/A   Overcast
9:53 PM 62.1 °F 48.9 °F 62% 29.90 in 10.0 mi North 9.2 mph - N/A   Overcast
10:53 PM 59.0 °F 48.0 °F 67% 29.92 in 10.0 mi North 10.4 mph - N/A   Scattered Clouds
11:53 PM 57.0 °F 48.0 °F 72% 29.93 in 10.0 mi North 9.2 mph - N/A   Partly Cloudy